Tracking 31027 objects as of 19-Jul-2025
HD Live streaming from Space Station
objects crossing your sky now

SL-16 DEB

Track SL-16 DEB now!
10-day predictions


NORAD ID: 22419
Int'l Code: 1992-093DL
Perigee: 837.6 km
Apogee: 992.8 km
Inclination: 71.2 °
Period: 103.2 minutes
Semi major axis: 7286 km
RCS: 0.0695 m2 (small)
Launch date: December 25, 1992
Source: Commonwealth of Independent States (former USSR) (CIS)
Launch site: TYURATAM MISSILE AND SPACE COMPLEX (TTMTR)

Note: This is SATELLITE DEBRIS
Your satellite tracking list
FLOCK 4X 28
Track 1 satellite(s)




NASA's NSSDC Master Catalog

Two Line Element Set (TLE):
1 22419U 92093DL  25199.15594092  .00000166  00000-0  14640-3 0  9993
2 22419  71.1798 119.8262 0106494 335.0086  24.5892 13.95887759654479
Source of the keplerian elements: AFSPC